09:57
Airports
History
Links
Donate
Help keep this website running!
PayPal
Bitcoin
This page is community maintained. The information is intended for PC simulator navigation or reference.
Always use approved charts for navigation.
96A
Carey
Carey (96A)
Crossville, Tennessee, United States (38571)
4
Lat/Lng:36° 4' 20.24" N / 85° 6' 49.86" W
36.072289 / -85.113851
Elevation:1960'ft / 597mMSL
ID / ICAO:96A
Runways:1
Longest:06-24
Grass 451m / 1,478ft
Nearby Weather09:53 GMT 2017-11-21
Nearby weather at KCSV, Crossville Memorial-whitson Fi located 8.5 nautical miles from 96A
Altimeter: 30.08
Visibility: 10.0 statute miles
Wind: 6 knots (from VRB°)
Temp: 6°c / 43°f
Humidity: 56.4%

METAR: KCSV 210953Z AUTO VRB06KT 10SM CLR 06/M02 A3008 RMK AO2 SLP185 T00611017

(Powered by phpweather)
Nearby VORs <50NM
Nearby NDBs
Runway 06 / 24
Dimensions:450.6 x 22.9m 1478' x 75'ft
Surface:Grass
Runway 06 [A]Runway 24 [B]
Heading:058°TH 238°TH
Lat:
Lng:
36° 4' 16.31"N
85° 6' 57.63"W
36° 4' 24.16"N
85° 6' 42.09"W
User Notes and Comments
36° 4' 20.24" N / 85° 6' 49.86" W
Distance To
Airport ID:
Nearby Airports
(R) Carey 0.0 NM
TN56 E 90°
(U) Crossville Memorial-whitson Fi 8.5 NM
KCSV ( WX ) S 169°
(R) Buck Creek Ranch 15.4 NM
4TN2 SSE 148°
(R) Schiff 20.7 NM
TN80 WNW 302°
(U) Jamestown Muni 21.3 NM
2A1 NNE 25°
(R) Austin Field 23.0 NM
TN66 S 170°
(U) Upper Cumberland Rgnl 23.3 NM
KSRB W 267°
VFR Chart
Flight Planning at SkyVector.com